This is the latest recevied weather packets stored in our database for station/object DH5DY-6. If no packets are shown the sender has not sent any weather packets the latest 10 day(s).
| Time | Temp. | Humidity | Pressure | Rain* | Wind** | Luminosity | Snow |
|---|---|---|---|---|---|---|---|
| 1787658123 | 21.67° C | 53% | 1012.3 hPa | 0 mm | - | 294 W/m² | - |
| 1787657523 | 21.67° C | 53% | 1012.2 hPa | 0 mm | - | 292 W/m² | - |
| 1787656923 | 21.67° C | 50% | 1012.1 hPa | 0 mm | - | 341 W/m² | - |
| 1787656324 | 21.11° C | 53% | 1012.1 hPa | 0 mm | - | 397 W/m² | - |
| 1787655723 | 21.11° C | 53% | 1012 hPa | 0 mm | - | 338 W/m² | - |
| 1787655123 | 21.11° C | 52% | 1012 hPa | 0 mm | - | 369 W/m² | - |
| 1787654523 | 21.11° C | 54% | 1012 hPa | 0 mm | - | 443 W/m² | - |
| 1787653923 | 21.11° C | 53% | 1012 hPa | 0 mm | - | 450 W/m² | - |
| 1787653323 | 20.56° C | 54% | 1012.2 hPa | 0 mm | - | 457 W/m² | - |
| 1787652723 | 20.56° C | 53% | 1012.2 hPa | 0 mm | - | 294 W/m² | - |
| 1787652122 | 20.56° C | 53% | 1012.2 hPa | 0 mm | - | 501 W/m² | - |
| 1787651523 | 20.56° C | 54% | 1012.2 hPa | 0 mm | - | 722 W/m² | - |
| 1787650923 | 20.56° C | 54% | 1012.3 hPa | 0 mm | - | 606 W/m² | - |
| 1787650323 | 20.56° C | 54% | 1012.4 hPa | 0 mm | - | 591 W/m² | - |
| 1787649723 | 20° C | 55% | 1012.2 hPa | 0 mm | - | 176 W/m² | - |
| 1787649122 | 19.44° C | 56% | 1012.2 hPa | 0 mm | - | 135 W/m² | - |
| 1787648522 | 19.44° C | 57% | 1012.3 hPa | 0 mm | - | 211 W/m² | - |
| 1787647922 | 18.89° C | 58% | 1012.3 hPa | 0 mm | - | 155 W/m² | - |
| 1787647323 | 18.33° C | 60% | 1012.3 hPa | 0 mm | - | 141 W/m² | - |
| 1787646722 | 18.33° C | 61% | 1012.4 hPa | 0 mm | - | 202 W/m² | - |
| 1787646122 | 17.78° C | 62% | 1012.5 hPa | 0 mm | - | 181 W/m² | - |
| 1787645522 | 17.22° C | 64% | 1012.3 hPa | 0 mm | - | 185 W/m² | - |
| 1787644923 | 17.22° C | 65% | 1012.2 hPa | 0 mm | - | 206 W/m² | - |
| 1787644323 | 16.67° C | 66% | 1012.3 hPa | 0 mm | - | 211 W/m² | - |
| 1787643723 | 16.11° C | 68% | 1012.2 hPa | 0 mm | - | 192 W/m² | - |
* Rain latest hour (hover to see other rain measurements)
** Current wind speed in m/s (hover to see current wind gust speed)